Location: Gad�tanya
(48.0500°N, 20.8500°E)
Time: 11:52:43
(UTC+00:00)

CREW DRAGON DEMO-1 DEB - Pass Details

Date: 05 July 2020
Orbit: 368 x 372 km, 51.6° (Epoch: 14 August)

Event Time Altitude Azimuth Distance (km) Brightness Sun altitude
Exits shadow 22:22:00 74° 57° (ENE) 389 2.8 -19.1°
Drops below altitude 10° 22:24:50 10° 67° (ENE) 1,371 5.9 -19.2°
Sets 22:26:52 0° 68° (ENE) 2,221 7.0 -19.2°
